Flag Weather past 2 weeks in Borås, Sweden

Now
41 °F

Passing clouds.


Feels Like: 41 °F
Forecast: 38 / 45 °F
Wind: No wind

Location: Gothenburg / Landvetter

Current Time: Oct 30, 2014 at 5:59:11 PM

Latest Report: Oct 30, 2014 at 5:20 PM


Visibility: N/A

Pressure: 30.21 "Hg

Humidity: 87%

Dew point: 37 °F

Location of BoråsLocation

Historic Weather in Borås — Graph

°F

Borås temperature yesterday

Maximum temperature yesterday: 50 °F (at 12:20 AM)
Minimum temperature yesterday: 39 °F (at 8:20 PM)
Average temperature yesterday: 47 °F

Past Weeks' High & Low Weather Summary

 TemperatureHumidityPressure
High57 °F (Oct 19, 6:20 AM)100% (Oct 15, 5:20 PM)30.21 "Hg (Oct 15, 5:20 PM)
Low34 °F (Oct 30, 5:50 AM)62% (Oct 29, 2:20 PM)29.42 "Hg (Oct 21, 8:20 PM)
Average49 °F92%29.86 "Hg
* Reported Oct 15 5:20 PM — Oct 30 4:20 PM, Borås, Weather by CustomWeather, © 2014

Note: Actual official high and low records may vary slightly from our data, if they occured in-between our weather recording intervals... More about our weather records

Advertising

Borås weather history for previous 24 hours

 ConditionsComfort  
Time TempWeatherWind HumidityBarometerVisibility
4:20 PM
Oct 30
43 °FPassing clouds.3 mph87%30.21 "HgN/A
3:50 PM46 °FPassing clouds.6 mph82%30.21 "HgN/A
3:20 PM48 °FPassing clouds.7 mph76%30.21 "HgN/A
2:50 PM48 °FSunny.5 mph76%30.21 "Hg10 mi
2:20 PM46 °FSunny.3 mph82%30.21 "Hg10 mi
1:50 PM46 °FSunny.6 mph76%30.21 "Hg10 mi
1:20 PM48 °FSunny.6 mph71%30.21 "Hg10 mi
12:50 PM48 °FSunny.5 mph71%30.21 "Hg10 mi
12:20 PM48 °FSunny.5 mph66%30.18 "Hg10 mi
11:50 AM48 °FSunny.3 mph71%30.18 "Hg10 mi
11:20 AM48 °FSunny.2 mph66%30.18 "Hg10 mi
10:50 AM46 °FSunny.2 mph66%30.18 "Hg10 mi
10:20 AM46 °FSunny.5 mph71%30.18 "Hg10 mi
9:50 AM45 °FSunny.3 mph71%30.18 "Hg10 mi
9:20 AM41 °FSunny.3 mph76%30.18 "Hg10 mi
8:50 AM37 °FSunny.5 mph87%30.15 "Hg10 mi
8:20 AM36 °FSunny.3 mph87%30.15 "Hg10 mi
7:50 AM36 °FSunny.2 mph93%30.15 "Hg10 mi
7:20 AM36 °FSunny.2 mph93%30.15 "Hg10 mi
6:50 AM37 °FClear.1 mph93%30.12 "Hg10 mi
6:20 AM36 °FPassing clouds.No wind100%30.12 "HgN/A
5:50 AM34 °FClear.No wind100%30.12 "Hg10 mi
5:20 AM39 °FClear.1 mph100%30.12 "Hg10 mi
4:50 AM36 °FClear.3 mph100%30.12 "Hg10 mi
4:20 AM36 °FClear.3 mph100%30.12 "Hg10 mi
3:50 AM36 °FClear.2 mph93%30.12 "Hg10 mi
3:20 AM39 °FClear.3 mph93%30.09 "Hg10 mi
2:50 AM37 °FClear.3 mph93%30.09 "Hg10 mi
2:20 AM39 °FClear.3 mph100%30.09 "Hg10 mi
1:50 AM39 °FClear.3 mph93%30.09 "Hg10 mi
1:20 AM39 °FClear.3 mph93%30.09 "Hg10 mi
12:50 AM39 °FClear.3 mph93%30.07 "Hg10 mi
12:20 AM41 °FClear.5 mph93%30.07 "Hg10 mi
11:50 PM
Oct 29
43 °FPassing clouds.5 mph87%30.07 "HgN/A
11:20 PM41 °FPassing clouds.3 mph93%30.07 "HgN/A
10:50 PM41 °FClear.3 mph93%30.07 "Hg10 mi
10:20 PM43 °FClear.5 mph87%30.04 "Hg10 mi
9:50 PM41 °FClear.3 mph87%30.04 "Hg10 mi
9:20 PM39 °FPassing clouds.5 mph93%30.04 "HgN/A
8:50 PM41 °FPassing clouds.3 mph93%30.04 "HgN/A
8:20 PM39 °FClear.3 mph87%30.01 "Hg10 mi
7:50 PM43 °FPassing clouds.3 mph87%30.01 "HgN/A
7:20 PM43 °FClear.6 mph87%30.01 "Hg10 mi
6:50 PM41 °FClear.6 mph87%30.01 "Hg10 mi
6:20 PM41 °FClear.5 mph87%29.98 "Hg10 mi
5:50 PM43 °FClear.5 mph81%29.98 "Hg10 mi
5:20 PM41 °FClear.5 mph87%29.98 "Hg10 mi
Weather by CustomWeather, © 2014

See weather overviewHow to use our weather pages